| time (UTC) | temp C | wind direction | speed KPH | gust KPH | rain 1hr cm | rain 24hr cm | rain mn cm | humidity % | barometer mb |
| 20260510175403 | 12 | 54 | 11.3 | 20.9 | 0.00 | 0.00 | 0.00 | 50 | 1015.3 |
| 20260510174503 | 12 | 70 | 8.0 | 16.1 | 0.00 | 0.00 | 0.00 | 52 | 1015.3 |
| 20260510173603 | 12 | 69 | 9.7 | 16.1 | 0.00 | 0.00 | 0.00 | 54 | 1015.5 |
| 20260510172703 | 12 | 56 | 9.7 | 16.1 | 0.00 | 0.00 | 0.00 | 55 | 1015.6 |
| 20260510171803 | 12 | 43 | 8.0 | 12.9 | 0.00 | 0.00 | 0.00 | 55 | 1015.7 |
| 20260510170903 | 12 | 8 | 11.3 | 17.7 | 0.00 | 0.00 | 0.00 | 54 | 1015.8 |
| 20260510170003 | 12 | 42 | 11.3 | 22.5 | 0.00 | 0.00 | 0.00 | 54 | 1016.0 |
| 20260510165403 | 12 | 52 | 14.5 | 22.5 | 0.00 | 0.00 | 0.00 | 55 | 1016.0 |
| 20260510164503 | 12 | 72 | 8.0 | 11.3 | 0.00 | 0.00 | 0.00 | 55 | 1016.0 |
| 20260510163603 | 12 | 52 | 12.9 | 24.1 | 0.00 | 0.00 | 0.00 | 53 | 1016.0 |
| 20260510162918 | 12 | 20 | 12.9 | 20.9 | 0.00 | 0.00 | 0.00 | 56 | 1016.1 |
| 20260510161803 | 12 | 57 | 16.1 | 25.7 | 0.00 | 0.00 | 0.00 | 55 | 1016.2 |
| 20260510160903 | 13 | 49 | 11.3 | 19.3 | 0.00 | 0.00 | 0.00 | 54 | 1016.3 |
| 20260510160003 | 13 | 21 | 12.9 | 20.9 | 0.00 | 0.00 | 0.00 | 56 | 1016.4 |
| 20260510155403 | 12 | 27 | 12.9 | 19.3 | 0.00 | 0.00 | 0.00 | 57 | 1016.4 |
| 20260510154503 | 12 | 31 | 9.7 | 19.3 | 0.00 | 0.00 | 0.00 | 57 | 1016.5 |
| 20260510153603 | 12 | 40 | 11.3 | 19.3 | 0.00 | 0.00 | 0.00 | 58 | 1016.7 |
| 20260510152703 | 12 | 39 | 11.3 | 17.7 | 0.00 | 0.00 | 0.00 | 60 | 1016.8 |
| 20260510151803 | 12 | 61 | 11.3 | 19.3 | 0.00 | 0.00 | 0.00 | 59 | 1016.7 |
| 20260510150903 | 12 | 42 | 11.3 | 22.5 | 0.00 | 0.00 | 0.00 | 60 | 1016.9 |
| 20260510150004 | 12 | 64 | 12.9 | 24.1 | 0.00 | 0.00 | 0.00 | 61 | 1017.1 |
| 20260510145403 | 12 | 51 | 8.0 | 17.7 | 0.00 | 0.00 | 0.00 | 62 | 1017.2 |
| 20260510144718 | 12 | 61 | 12.9 | 20.9 | 0.00 | 0.00 | 0.00 | 63 | 1017.3 |
| 20260510143603 | 12 | 90 | 12.9 | 27.4 | 0.00 | 0.00 | 0.00 | 63 | 1017.3 |
| 20260510142703 | 12 | 66 | 9.7 | 17.7 | 0.00 | 0.00 | 0.00 | 62 | 1017.4 |
| 20260510141803 | 12 | 44 | 12.9 | 24.1 | 0.00 | 0.00 | 0.00 | 63 | 1017.7 |
| 20260510140903 | 12 | 58 | 11.3 | 17.7 | 0.00 | 0.00 | 0.00 | 66 | 1017.7 |
| 20260510140003 | 11 | 92 | 12.9 | 22.5 | 0.00 | 0.00 | 0.00 | 67 | 1017.8 |
| 20260510135617 | 11 | 86 | 14.5 | 22.5 | 0.00 | 0.00 | 0.00 | 67 | 1017.7 |
| 20260510134503 | 11 | 79 | 14.5 | 24.1 | 0.00 | 0.00 | 0.00 | 67 | 1017.7 |
| 20260510133603 | 11 | 79 | 11.3 | 20.9 | 0.00 | 0.00 | 0.00 | 68 | 1017.8 |
| 20260510132703 | 11 | 47 | 12.9 | 20.9 | 0.00 | 0.00 | 0.00 | 70 | 1017.9 |
| 20260510131803 | 11 | 43 | 11.3 | 22.5 | 0.00 | 0.00 | 0.00 | 70 | 1017.8 |
| 20260510131117 | 11 | 43 | 14.5 | 24.1 | 0.00 | 0.00 | 0.00 | 70 | 1018.0 |
| 20260510130003 | 11 | 64 | 12.9 | 24.1 | 0.00 | 0.00 | 0.00 | 71 | 1018.1 |
| 20260510125403 | 11 | 69 | 16.1 | 24.1 | 0.00 | 0.00 | 0.00 | 70 | 1018.0 |
| 20260510124503 | 10 | 57 | 14.5 | 20.9 | 0.00 | 0.00 | 0.00 | 72 | 1018.2 |
| 20260510123603 | 10 | 34 | 14.5 | 20.9 | 0.00 | 0.00 | 0.00 | 72 | 1018.2 |
| 20260510122703 | 10 | 51 | 14.5 | 24.1 | 0.00 | 0.00 | 0.00 | 73 | 1018.3 |
| 20260510121803 | 10 | 60 | 14.5 | 22.5 | 0.00 | 0.00 | 0.00 | 74 | 1018.4 |
| 20260510120903 | 10 | 28 | 14.5 | 20.9 | 0.00 | 0.00 | 0.00 | 74 | 1018.4 |
| 20260510120003 | 10 | 45 | 14.5 | 20.9 | 0.00 | 0.00 | 0.00 | 76 | 1018.6 |
| 20260510115403 | 10 | 39 | 9.7 | 19.3 | 0.00 | 0.00 | 0.00 | 75 | 1018.7 |
| 20260510114503 | 10 | 72 | 11.3 | 24.1 | 0.00 | 0.00 | 0.00 | 75 | 1018.7 |
| 20260510113817 | 10 | 85 | 14.5 | 22.5 | 0.00 | 0.00 | 0.00 | 76 | 1018.8 |
| 20260510112703 | 10 | 49 | 14.5 | 29.0 | 0.00 | 0.00 | 0.00 | 77 | 1018.8 |
| 20260510111803 | 10 | 72 | 16.1 | 29.0 | 0.00 | 0.00 | 0.00 | 76 | 1018.9 |
| 20260510110903 | 10 | 67 | 11.3 | 19.3 | 0.00 | 0.00 | 0.00 | 78 | 1019.0 |
| 20260510110218 | 9 | 50 | 12.9 | 24.1 | 0.00 | 0.00 | 0.00 | 78 | 1019.0 |
| 20260510105403 | 9 | 54 | 6.4 | 14.5 | 0.00 | 0.00 | 0.00 | 79 | 1019.2 |
| 20260510104503 | 8 | 48 | 11.3 | 17.7 | 0.00 | 0.00 | 0.00 | 80 | 1019.3 |
| 20260510103603 | 8 | 59 | 12.9 | 24.1 | 0.00 | 0.00 | 0.00 | 80 | 1019.3 |
| 20260510102703 | 8 | 43 | 12.9 | 22.5 | 0.00 | 0.00 | 0.00 | 81 | 1019.4 |
| 20260510102017 | 8 | 25 | 14.5 | 22.5 | 0.00 | 0.00 | 0.00 | 81 | 1019.5 |
| 20260510100903 | 8 | 68 | 6.4 | 14.5 | 0.00 | 0.00 | 0.00 | 81 | 1019.5 |
| 20260510100218 | 8 | 48 | 12.9 | 19.3 | 0.00 | 0.00 | 0.00 | 82 | 1019.6 |
| 20260510095403 | 8 | 58 | 14.5 | 22.5 | 0.00 | 0.00 | 0.00 | 82 | 1019.4 |
| 20260510094503 | 8 | 58 | 12.9 | 20.9 | 0.00 | 0.00 | 0.00 | 82 | 1019.5 |
| 20260510093818 | 8 | 29 | 14.5 | 22.5 | 0.00 | 0.00 | 0.00 | 82 | 1019.4 |
| 20260510092703 | 8 | 50 | 11.3 | 24.1 | 0.00 | 0.00 | 0.00 | 83 | 1019.5 |
| 20260510091803 | 8 | 51 | 11.3 | 19.3 | 0.00 | 0.00 | 0.00 | 83 | 1019.5 |
| 20260510091118 | 8 | 47 | 12.9 | 24.1 | 0.00 | 0.00 | 0.00 | 83 | 1019.7 |
| 20260510090003 | 8 | 54 | 12.9 | 24.1 | 0.00 | 0.00 | 0.00 | 84 | 1019.7 |
| 20260510085403 | 7 | 58 | 12.9 | 20.9 | 0.00 | 0.00 | 0.00 | 85 | 1019.7 |
| 20260510084503 | 7 | 47 | 14.5 | 27.4 | 0.00 | 0.00 | 0.00 | 85 | 1019.8 |
| 20260510083603 | 7 | 56 | 11.3 | 22.5 | 0.00 | 0.00 | 0.00 | 86 | 1019.8 |
| 20260510082704 | 7 | 47 | 16.1 | 24.1 | 0.00 | 0.00 | 0.00 | 86 | 1019.9 |
| 20260510081803 | 7 | 31 | 12.9 | 20.9 | 0.00 | 0.00 | 0.00 | 86 | 1019.8 |
| 20260510080904 | 7 | 52 | 12.9 | 20.9 | 0.00 | 0.00 | 0.00 | 86 | 1019.9 |
| 20260510080003 | 7 | 44 | 11.3 | 19.3 | 0.00 | 0.00 | 0.00 | 86 | 1019.8 |
| 20260510075403 | 7 | 38 | 6.4 | 9.7 | 0.00 | 0.00 | 0.00 | 86 | 1019.9 |
| 20260510074503 | 7 | 54 | 12.9 | 24.1 | 0.00 | 0.00 | 0.00 | 86 | 1019.8 |
| 20260510073603 | 7 | 78 | 11.3 | 17.7 | 0.00 | 0.00 | 0.00 | 86 | 1019.8 |
| 20260510072704 | 7 | 56 | 6.4 | 11.3 | 0.00 | 0.00 | 0.00 | 87 | 1019.8 |
| 20260510071803 | 7 | 45 | 16.1 | 24.1 | 0.00 | 0.00 | 0.00 | 87 | 1019.7 |
| 20260510070903 | 7 | 54 | 14.5 | 22.5 | 0.00 | 0.00 | 0.00 | 87 | 1019.7 |
| 20260510070216 | 7 | 44 | 14.5 | 22.5 | 0.00 | 0.00 | 0.00 | 88 | 1019.7 |
| 20260510065403 | 7 | 47 | 12.9 | 20.9 | 0.00 | 0.00 | 0.00 | 88 | 1019.6 |
| 20260510064503 | 7 | 38 | 11.3 | 19.3 | 0.00 | 0.00 | 0.00 | 88 | 1019.7 |
| 20260510063603 | 7 | 29 | 12.9 | 27.4 | 0.00 | 0.00 | 0.00 | 88 | 1019.6 |
| 20260510062703 | 7 | 20 | 14.5 | 27.4 | 0.00 | 0.00 | 0.00 | 88 | 1019.6 |
| 20260510062018 | 7 | 29 | 14.5 | 24.1 | 0.00 | 0.00 | 0.00 | 88 | 1019.4 |
| 20260510061117 | 7 | 38 | 14.5 | 22.5 | 0.00 | 0.00 | 0.00 | 88 | 1019.4 |
| 20260510060003 | 7 | 55 | 11.3 | 22.5 | 0.00 | 0.00 | 0.00 | 88 | 1019.4 |
| 20260510055403 | 7 | 48 | 12.9 | 22.5 | 0.00 | 0.00 | 0.00 | 88 | 1019.4 |
| 20260510054503 | 7 | 43 | 14.5 | 24.1 | 0.00 | 0.00 | 0.00 | 88 | 1019.3 |
| 20260510053603 | 7 | 46 | 14.5 | 24.1 | 0.00 | 0.03 | 0.00 | 87 | 1019.3 |
| 20260510052703 | 8 | 50 | 12.9 | 22.5 | 0.00 | 0.03 | 0.00 | 87 | 1019.2 |
| 20260510052017 | 8 | 52 | 12.9 | 17.7 | 0.00 | 0.03 | 0.00 | 87 | 1019.2 |
| 20260510050903 | 8 | 48 | 6.4 | 4.8 | 0.00 | 0.03 | 0.00 | 87 | 1019.4 |
| 20260510050218 | 8 | 49 | 12.9 | 22.5 | 0.00 | 0.03 | 0.00 | 87 | 1019.3 |
| 20260510045403 | 8 | 51 | 12.9 | 22.5 | 0.00 | 0.03 | 0.00 | 87 | 1019.4 |
| 20260510044503 | 8 | 32 | 11.3 | 19.3 | 0.00 | 0.03 | 0.00 | 87 | 1019.5 |
| 20260510043603 | 8 | 47 | 12.9 | 24.1 | 0.00 | 0.03 | 0.00 | 87 | 1019.4 |
| 20260510042703 | 8 | 35 | 14.5 | 22.5 | 0.00 | 0.03 | 0.00 | 87 | 1019.5 |
| 20260510041803 | 8 | 40 | 12.9 | 22.5 | 0.00 | 0.03 | 0.00 | 87 | 1019.5 |
| 20260510040903 | 8 | 49 | 14.5 | 22.5 | 0.00 | 0.03 | 0.00 | 87 | 1019.6 |
| 20260510040003 | 8 | 36 | 12.9 | 19.3 | 0.00 | 0.03 | 0.00 | 87 | 1019.7 |
| 20260510035403 | 8 | 49 | 14.5 | 24.1 | 0.00 | 0.03 | 0.00 | 86 | 1019.7 |
| 20260510034503 | 8 | 58 | 14.5 | 24.1 | 0.00 | 0.03 | 0.00 | 86 | 1019.6 |
| 20260510033603 | 8 | 48 | 14.5 | 20.9 | 0.00 | 0.03 | 0.00 | 86 | 1019.7 |
| 20260510032703 | 8 | 58 | 12.9 | 19.3 | 0.00 | 0.03 | 0.00 | 86 | 1019.7 |
| 20260510032018 | 8 | 54 | 11.3 | 19.3 | 0.00 | 0.03 | 0.00 | 86 | 1019.7 |
| 20260510030903 | 8 | 45 | 14.5 | 22.5 | 0.00 | 0.03 | 0.00 | 86 | 1019.8 |
| 20260510030003 | 8 | 43 | 9.7 | 20.9 | 0.00 | 0.03 | 0.00 | 86 | 1019.8 |
| 20260510025403 | 8 | 64 | 9.7 | 16.1 | 0.00 | 0.03 | 0.00 | 87 | 1019.8 |
| 20260510024503 | 8 | 41 | 12.9 | 22.5 | 0.00 | 0.03 | 0.00 | 87 | 1019.8 |
| 20260510023603 | 8 | 51 | 11.3 | 20.9 | 0.00 | 0.03 | 0.00 | 87 | 1019.8 |
| 20260510022917 | 8 | 40 | 12.9 | 20.9 | 0.00 | 0.03 | 0.00 | 87 | 1019.8 |
| 20260510021803 | 8 | 41 | 11.3 | 17.7 | 0.00 | 0.03 | 0.00 | 86 | 1019.8 |
| 20260510020903 | 8 | 60 | 6.4 | 14.5 | 0.00 | 0.03 | 0.00 | 86 | 1019.8 |
| 20260510020003 | 8 | 61 | 8.0 | 9.7 | 0.00 | 0.03 | 0.00 | 86 | 1019.7 |
| 20260510015403 | 8 | 52 | 14.5 | 22.5 | 0.00 | 0.03 | 0.00 | 86 | 1019.7 |
| 20260510014717 | 8 | 42 | 14.5 | 22.5 | 0.00 | 0.03 | 0.00 | 86 | 1019.7 |
| 20260510013603 | 8 | 61 | 14.5 | 25.7 | 0.00 | 0.03 | 0.00 | 86 | 1019.8 |
| 20260510012703 | 8 | 78 | 16.1 | 25.7 | 0.00 | 0.03 | 0.00 | 85 | 1019.8 |
| 20260510011803 | 8 | 74 | 14.5 | 25.7 | 0.00 | 0.03 | 0.00 | 85 | 1019.9 |
| 20260510010903 | 8 | 67 | 14.5 | 27.4 | 0.00 | 0.03 | 0.00 | 85 | 1019.9 |
| 20260510010003 | 8 | 52 | 12.9 | 22.5 | 0.00 | 0.03 | 0.00 | 85 | 1020.0 |
| 20260510005403 | 8 | 54 | 14.5 | 22.5 | 0.00 | 0.03 | 0.00 | 85 | 1020.0 |
| 20260510004503 | 8 | 40 | 16.1 | 25.7 | 0.00 | 0.03 | 0.00 | 85 | 1019.9 |
| 20260510003603 | 8 | 41 | 16.1 | 24.1 | 0.00 | 0.03 | 0.00 | 84 | 1019.8 |
| 20260510002703 | 9 | 60 | 12.9 | 24.1 | 0.00 | 0.03 | 0.00 | 84 | 1019.8 |
| 20260510001803 | 9 | 56 | 14.5 | 27.4 | 0.00 | 0.03 | 0.00 | 84 | 1019.7 |
| 20260510000903 | 9 | 62 | 16.1 | 27.4 | 0.00 | 0.03 | 0.00 | 84 | 1019.6 |
| 20260510000004 | 9 | 44 | 16.1 | 25.7 | 0.00 | 0.03 | 0.00 | 84 | 1019.6 |
| 20260509235403 | 9 | 50 | 17.7 | 25.7 | 0.00 | 0.03 | 0.00 | 84 | 1019.8 |
| 20260509234503 | 9 | 41 | 16.1 | 27.4 | 0.00 | 0.03 | 0.00 | 84 | 1019.9 |
| 20260509233818 | 10 | 41 | 9.7 | 16.1 | 0.00 | 0.03 | 0.00 | 84 | 1019.7 |
| 20260509232703 | 10 | 39 | 16.1 | 24.1 | 0.00 | 0.03 | 0.00 | 84 | 1019.6 |
| 20260509231803 | 10 | 33 | 16.1 | 22.5 | 0.00 | 0.03 | 0.00 | 84 | 1019.7 |
| 20260509230903 | 10 | 45 | 16.1 | 27.4 | 0.00 | 0.03 | 0.00 | 84 | 1019.8 |
| 20260509230004 | 10 | 54 | 12.9 | 24.1 | 0.00 | 0.03 | 0.00 | 84 | 1019.6 |
| 20260509225403 | 10 | 43 | 16.1 | 24.1 | 0.00 | 0.03 | 0.03 | 83 | 1019.6 |
| 20260509224503 | 10 | 44 | 14.5 | 24.1 | 0.00 | 0.03 | 0.03 | 83 | 1019.6 |
| 20260509223603 | 10 | 31 | 14.5 | 19.3 | 0.00 | 0.03 | 0.03 | 83 | 1019.5 |
| 20260509222703 | 11 | 39 | 12.9 | 19.3 | 0.00 | 0.03 | 0.03 | 83 | 1019.5 |
| 20260509221803 | 11 | 36 | 12.9 | 19.3 | 0.00 | 0.03 | 0.03 | 83 | 1019.4 |
| 20260509220903 | 11 | 38 | 12.9 | 19.3 | 0.00 | 0.03 | 0.03 | 83 | 1019.5 |
| 20260509220003 | 11 | 33 | 6.4 | 14.5 | 0.00 | 0.03 | 0.03 | 83 | 1019.6 |
| 20260509215403 | 11 | 30 | 11.3 | 20.9 | 0.00 | 0.03 | 0.03 | 82 | 1019.6 |
| 20260509214503 | 11 | 4 | 12.9 | 22.5 | 0.00 | 0.03 | 0.03 | 82 | 1019.4 |
| 20260509213603 | 11 | 22 | 11.3 | 17.7 | 0.00 | 0.03 | 0.03 | 82 | 1019.4 |
| 20260509212703 | 11 | 22 | 12.9 | 20.9 | 0.00 | 0.03 | 0.03 | 82 | 1019.3 |
| 20260509211803 | 12 | 34 | 12.9 | 19.3 | 0.00 | 0.03 | 0.03 | 81 | 1019.2 |
| 20260509210903 | 12 | 34 | 11.3 | 20.9 | 0.00 | 0.03 | 0.03 | 81 | 1019.0 |
| 20260509210003 | 12 | 17 | 12.9 | 24.1 | 0.00 | 0.05 | 0.03 | 81 | 1018.9 |
| 20260509205403 | 12 | 28 | 11.3 | 16.1 | 0.00 | 0.05 | 0.03 | 82 | 1018.9 |
| 20260509204718 | 12 | 40 | 11.3 | 17.7 | 0.00 | 0.08 | 0.03 | 82 | 1018.9 |
| 20260509203603 | 12 | 9 | 8.0 | 17.7 | 0.00 | 0.25 | 0.03 | 82 | 1018.8 |
| 20260509202916 | 12 | 7 | 8.0 | 12.9 | 0.00 | 0.33 | 0.03 | 82 | 1018.8 |
| 20260509202018 | 12 | 1 | 11.3 | 17.7 | 0.00 | 0.33 | 0.03 | 82 | 1018.8 |
| 20260509201117 | 12 | 359 | 14.5 | 22.5 | 0.00 | 0.33 | 0.03 | 81 | 1018.6 |
| 20260509200004 | 13 | 348 | 12.9 | 19.3 | 0.00 | 0.46 | 0.03 | 81 | 1018.5 |
| 20260509195403 | 13 | 349 | 12.9 | 19.3 | 0.00 | 0.48 | 0.03 | 80 | 1018.6 |
| 20260509194503 | 13 | 352 | 12.9 | 20.9 | 0.00 | 0.48 | 0.03 | 80 | 1018.4 |
| 20260509193603 | 13 | 338 | 14.5 | 22.5 | 0.00 | 0.48 | 0.03 | 79 | 1018.2 |
| 20260509192703 | 13 | 345 | 14.5 | 22.5 | 0.00 | 0.48 | 0.03 | 78 | 1018.1 |
| 20260509192018 | 14 | 347 | 14.5 | 24.1 | 0.00 | 0.48 | 0.03 | 77 | 1018.1 |
| 20260509190903 | 14 | 356 | 14.5 | 24.1 | 0.00 | 0.48 | 0.03 | 76 | 1018.1 |
| 20260509190003 | 15 | 345 | 14.5 | 20.9 | 0.00 | 0.48 | 0.03 | 75 | 1018.0 |
| 20260509185403 | 15 | 337 | 16.1 | 22.5 | 0.00 | 0.48 | 0.03 | 73 | 1018.0 |
| 20260509184503 | 16 | 340 | 11.3 | 19.3 | 0.00 | 0.48 | 0.03 | 71 | 1017.9 |
| 20260509183603 | 16 | 356 | 8.0 | 19.3 | 0.00 | 0.48 | 0.03 | 64 | 1017.7 |
| 20260509182703 | 17 | 37 | 4.8 | 9.7 | 0.00 | 0.48 | 0.03 | 51 | 1017.6 |
| 20260509181803 | 17 | 42 | 3.2 | 6.4 | 0.00 | 0.48 | 0.03 | 51 | 1017.5 |
| 20260509180903 | 17 | 52 | 6.4 | 14.5 | 0.00 | 0.51 | 0.03 | 51 | 1017.6 |